Year,Month,Day,Hour,Minute,Value (Times are PST for temperature in C)
2015,08,21,00,00,17.00
2015,08,21,00,01,17.00
2015,08,21,00,02,17.00
2015,08,21,00,03,17.00
2015,08,21,00,04,16.90
2015,08,21,00,05,16.90
2015,08,21,00,06,16.90
2015,08,21,00,07,16.90
2015,08,21,00,08,16.90
2015,08,21,00,09,16.90
2015,08,21,00,10,16.80
2015,08,21,00,11,16.80
2015,08,21,00,12,16.80
2015,08,21,00,13,16.80
2015,08,21,00,14,16.80
2015,08,21,00,15,16.80
2015,08,21,00,16,16.80
2015,08,21,00,17,16.80
2015,08,21,00,18,16.70
2015,08,21,00,19,16.70
2015,08,21,00,20,16.70
2015,08,21,00,21,16.70
2015,08,21,00,22,16.70
2015,08,21,00,23,16.70
2015,08,21,00,24,16.70
2015,08,21,00,25,16.70
2015,08,21,00,26,16.60
2015,08,21,00,27,16.60
2015,08,21,00,28,16.60
2015,08,21,00,29,16.60
2015,08,21,00,30,16.60
2015,08,21,00,31,16.60
2015,08,21,00,32,16.60
2015,08,21,00,33,16.50
2015,08,21,00,34,16.50
2015,08,21,00,35,16.50
2015,08,21,00,36,16.50
2015,08,21,00,37,16.50
2015,08,21,00,38,16.50
2015,08,21,00,39,16.40
2015,08,21,00,40,16.40
2015,08,21,00,41,16.40
2015,08,21,00,42,16.40
2015,08,21,00,43,16.40
2015,08,21,00,44,16.40
2015,08,21,00,45,16.40
2015,08,21,00,46,16.40
2015,08,21,00,47,16.40
2015,08,21,00,48,16.40
2015,08,21,00,49,16.40
2015,08,21,00,50,16.40
2015,08,21,00,51,16.30
2015,08,21,00,52,16.30
2015,08,21,00,53,16.30
2015,08,21,00,54,16.30
2015,08,21,00,55,16.30
2015,08,21,00,56,16.30
2015,08,21,00,57,16.30
2015,08,21,00,58,16.30
2015,08,21,00,59,16.30
2015,08,21,01,00,16.30
2015,08,21,01,01,16.30
2015,08,21,01,02,16.30
2015,08,21,01,03,16.30
2015,08,21,01,04,16.30
2015,08,21,01,05,16.30
2015,08,21,01,06,16.30
2015,08,21,01,07,16.30
2015,08,21,01,08,16.30
2015,08,21,01,09,16.30
2015,08,21,01,10,16.30
2015,08,21,01,11,16.30
2015,08,21,01,12,16.30
2015,08,21,01,13,16.20
2015,08,21,01,14,16.20
2015,08,21,01,15,16.20
2015,08,21,01,16,16.20
2015,08,21,01,17,16.20
2015,08,21,01,18,16.20
2015,08,21,01,19,16.20
2015,08,21,01,20,16.20
2015,08,21,01,21,16.20
2015,08,21,01,22,16.20
2015,08,21,01,23,16.20
2015,08,21,01,24,16.10
2015,08,21,01,25,16.10
2015,08,21,01,26,16.10
2015,08,21,01,27,16.10
2015,08,21,01,28,16.10
2015,08,21,01,29,16.10
2015,08,21,01,30,16.10
2015,08,21,01,31,16.00
2015,08,21,01,32,16.00
2015,08,21,01,33,16.00
2015,08,21,01,34,16.00
2015,08,21,01,35,15.90
2015,08,21,01,36,15.90
2015,08,21,01,37,15.90
2015,08,21,01,38,15.90
2015,08,21,01,39,15.90
2015,08,21,01,40,15.90
2015,08,21,01,41,15.80
2015,08,21,01,42,15.80
2015,08,21,01,43,15.80
2015,08,21,01,44,15.80
2015,08,21,01,45,15.80
2015,08,21,01,46,15.80
2015,08,21,01,47,15.70
2015,08,21,01,48,15.70
2015,08,21,01,49,15.70
2015,08,21,01,50,15.70
2015,08,21,01,51,15.70
2015,08,21,01,52,15.70
2015,08,21,01,53,15.60
2015,08,21,01,54,15.60
2015,08,21,01,55,15.60
2015,08,21,01,56,15.60
2015,08,21,01,57,15.60
2015,08,21,01,58,15.60
2015,08,21,01,59,15.60
2015,08,21,02,00,15.50
2015,08,21,02,01,15.50
2015,08,21,02,02,15.50
2015,08,21,02,03,15.50
2015,08,21,02,04,15.50
2015,08,21,02,05,15.50
2015,08,21,02,06,15.40
2015,08,21,02,07,15.40
2015,08,21,02,08,15.40
2015,08,21,02,09,15.40
2015,08,21,02,10,15.40
2015,08,21,02,11,15.40
2015,08,21,02,12,15.40
2015,08,21,02,13,15.30
2015,08,21,02,14,15.30
2015,08,21,02,15,15.30
2015,08,21,02,16,15.30
2015,08,21,02,17,15.30
2015,08,21,02,18,15.30
2015,08,21,02,19,15.30
2015,08,21,02,20,15.20
2015,08,21,02,21,15.20
2015,08,21,02,22,15.20
2015,08,21,02,23,15.20
2015,08,21,02,24,15.10
2015,08,21,02,25,15.10
2015,08,21,02,26,15.10
2015,08,21,02,27,15.10
2015,08,21,02,28,15.10
2015,08,21,02,29,15.00
2015,08,21,02,30,15.00
2015,08,21,02,31,15.00
2015,08,21,02,32,15.00
2015,08,21,02,33,15.00
2015,08,21,02,34,15.00
2015,08,21,02,35,15.00
2015,08,21,02,36,15.00
2015,08,21,02,37,15.00
2015,08,21,02,38,15.00
2015,08,21,02,39,15.00
2015,08,21,02,40,15.00
2015,08,21,02,41,15.00
2015,08,21,02,42,15.00
2015,08,21,02,43,15.00
2015,08,21,02,44,15.00
2015,08,21,02,45,15.00
2015,08,21,02,46,15.00
2015,08,21,02,47,15.00
2015,08,21,02,48,14.90
2015,08,21,02,49,14.90
2015,08,21,02,50,14.90
2015,08,21,02,51,14.90
2015,08,21,02,52,14.90
2015,08,21,02,53,14.90
2015,08,21,02,54,14.90
2015,08,21,02,55,14.90
2015,08,21,02,56,15.00
2015,08,21,02,57,15.00
2015,08,21,02,58,15.00
2015,08,21,02,59,15.00
2015,08,21,03,00,15.00
2015,08,21,03,01,15.00
2015,08,21,03,02,15.00
2015,08,21,03,03,15.00
2015,08,21,03,04,15.00
2015,08,21,03,05,15.10
2015,08,21,03,06,15.10
2015,08,21,03,07,15.20
2015,08,21,03,08,15.20
2015,08,21,03,09,15.20
2015,08,21,03,10,15.20
2015,08,21,03,11,15.20
2015,08,21,03,12,15.20
2015,08,21,03,13,15.20
2015,08,21,03,14,15.30
2015,08,21,03,15,15.30
2015,08,21,03,16,15.30
2015,08,21,03,17,15.30
2015,08,21,03,18,15.30
2015,08,21,03,19,15.20
2015,08,21,03,20,15.20
2015,08,21,03,21,15.20
2015,08,21,03,22,15.20
2015,08,21,03,23,15.20
2015,08,21,03,24,15.20
2015,08,21,03,25,15.20
2015,08,21,03,26,15.20
2015,08,21,03,27,15.30
2015,08,21,03,28,15.30
2015,08,21,03,29,15.30
2015,08,21,03,30,15.30
2015,08,21,03,31,15.30
2015,08,21,03,32,15.30
2015,08,21,03,33,15.30
2015,08,21,03,34,15.30
2015,08,21,03,35,15.30
2015,08,21,03,36,15.40
2015,08,21,03,37,15.40
2015,08,21,03,38,15.40
2015,08,21,03,39,15.40
2015,08,21,03,40,15.40
2015,08,21,03,41,15.30
2015,08,21,03,42,15.30
2015,08,21,03,43,15.30
2015,08,21,03,44,15.30
2015,08,21,03,45,15.30
2015,08,21,03,46,15.30
2015,08,21,03,47,15.30
2015,08,21,03,48,15.30
2015,08,21,03,49,15.20
2015,08,21,03,50,15.20
2015,08,21,03,51,15.20
2015,08,21,03,52,15.20
2015,08,21,03,53,15.10
2015,08,21,03,54,15.10
2015,08,21,03,55,15.00
2015,08,21,03,56,15.00
2015,08,21,03,57,15.00
2015,08,21,03,58,15.00
2015,08,21,03,59,15.00
2015,08,21,04,00,15.00
2015,08,21,04,01,15.00
2015,08,21,04,02,15.00
2015,08,21,04,03,15.00
2015,08,21,04,04,15.00
2015,08,21,04,05,15.00
2015,08,21,04,06,15.00
2015,08,21,04,07,15.00
2015,08,21,04,08,15.00
2015,08,21,04,09,14.90
2015,08,21,04,10,14.90
2015,08,21,04,11,14.90
2015,08,21,04,12,14.90
2015,08,21,04,13,14.80
2015,08,21,04,14,14.80
2015,08,21,04,15,14.80
2015,08,21,04,16,14.80
2015,08,21,04,17,14.70
2015,08,21,04,18,14.70
2015,08,21,04,19,14.70
2015,08,21,04,20,14.70
2015,08,21,04,21,14.60
2015,08,21,04,22,14.60
2015,08,21,04,23,14.60
2015,08,21,04,24,14.60
2015,08,21,04,25,14.50
2015,08,21,04,26,14.50
2015,08,21,04,27,14.50
2015,08,21,04,28,14.50
2015,08,21,04,29,14.40
2015,08,21,04,30,14.40
2015,08,21,04,31,14.40
2015,08,21,04,32,14.40
2015,08,21,04,33,14.30
2015,08,21,04,34,14.30
2015,08,21,04,35,14.30
2015,08,21,04,36,14.30
2015,08,21,04,37,14.30
2015,08,21,04,38,14.30
2015,08,21,04,39,14.30
2015,08,21,04,40,14.30
2015,08,21,04,41,14.30
2015,08,21,04,42,14.30
2015,08,21,04,43,14.30
2015,08,21,04,44,14.30
2015,08,21,04,45,14.30
2015,08,21,04,46,14.30
2015,08,21,04,47,14.30
2015,08,21,04,48,14.20
2015,08,21,04,49,14.20
2015,08,21,04,50,14.20
2015,08,21,04,51,14.20
2015,08,21,04,52,14.10
2015,08,21,04,53,14.10
2015,08,21,04,54,14.00
2015,08,21,04,55,14.00
2015,08,21,04,56,14.00
2015,08,21,04,57,13.90
2015,08,21,04,58,13.90
2015,08,21,04,59,13.90
2015,08,21,05,00,13.90
2015,08,21,05,01,13.90
2015,08,21,05,02,13.90
2015,08,21,05,03,13.80
2015,08,21,05,04,13.80
2015,08,21,05,05,13.80
2015,08,21,05,06,13.80
2015,08,21,05,07,13.80
2015,08,21,05,08,13.80
2015,08,21,05,09,13.80
2015,08,21,05,10,13.80
2015,08,21,05,11,13.70
2015,08,21,05,12,13.70
2015,08,21,05,13,13.70
2015,08,21,05,14,13.70
2015,08,21,05,15,13.70
2015,08,21,05,16,13.60
2015,08,21,05,17,13.60
2015,08,21,05,18,13.60
2015,08,21,05,19,13.60
2015,08,21,05,20,13.60
2015,08,21,05,21,13.60
2015,08,21,05,22,13.60
2015,08,21,05,23,13.60
2015,08,21,05,24,13.60
2015,08,21,05,25,13.60
2015,08,21,05,26,13.60
2015,08,21,05,27,13.60
2015,08,21,05,28,13.60
2015,08,21,05,29,13.50
2015,08,21,05,30,13.50
2015,08,21,05,31,13.50
2015,08,21,05,32,13.50
2015,08,21,05,33,13.50
2015,08,21,05,34,13.50
2015,08,21,05,35,13.50
2015,08,21,05,36,13.50
2015,08,21,05,37,13.50
2015,08,21,05,38,13.50
2015,08,21,05,39,13.50
2015,08,21,05,40,13.50
2015,08,21,05,41,13.50
2015,08,21,05,42,13.50
2015,08,21,05,43,13.50
2015,08,21,05,44,13.50
2015,08,21,05,45,13.50
2015,08,21,05,46,13.50
2015,08,21,05,47,13.40
2015,08,21,05,48,13.40
2015,08,21,05,49,13.40
2015,08,21,05,50,13.40
2015,08,21,05,51,13.40
2015,08,21,05,52,13.40
2015,08,21,05,53,13.40
2015,08,21,05,54,13.40
2015,08,21,05,55,13.40
2015,08,21,05,56,13.40
2015,08,21,05,57,13.40
2015,08,21,05,58,13.40
2015,08,21,05,59,13.40
2015,08,21,06,00,13.40
2015,08,21,06,01,13.40
2015,08,21,06,02,13.40
2015,08,21,06,03,13.40
2015,08,21,06,04,13.40
2015,08,21,06,05,13.40
2015,08,21,06,06,13.40
2015,08,21,06,07,13.40
2015,08,21,06,08,13.40
2015,08,21,06,09,13.40
2015,08,21,06,10,13.40
2015,08,21,06,11,13.40
2015,08,21,06,12,13.40
2015,08,21,06,13,13.50
2015,08,21,06,14,13.50
2015,08,21,06,15,13.50
2015,08,21,06,16,13.50
2015,08,21,06,17,13.50
2015,08,21,06,18,13.50
2015,08,21,06,19,13.50
2015,08,21,06,20,13.50
2015,08,21,06,21,13.50
2015,08,21,06,22,13.60
2015,08,21,06,23,13.60
2015,08,21,06,24,13.60
2015,08,21,06,25,13.60
2015,08,21,06,26,13.60
2015,08,21,06,27,13.60
2015,08,21,06,28,13.60
2015,08,21,06,29,13.60
2015,08,21,06,30,13.60
2015,08,21,06,31,13.60
2015,08,21,06,32,13.70
2015,08,21,06,33,13.70
2015,08,21,06,34,13.70
2015,08,21,06,35,13.70
2015,08,21,06,36,13.70
2015,08,21,06,37,13.70
2015,08,21,06,38,13.70
2015,08,21,06,39,13.70
2015,08,21,06,40,13.80
2015,08,21,06,41,13.80
2015,08,21,06,42,13.80
2015,08,21,06,43,13.80
2015,08,21,06,44,13.90
2015,08,21,06,45,13.90
2015,08,21,06,46,13.90
2015,08,21,06,47,13.90
2015,08,21,06,48,13.90
2015,08,21,06,49,13.90
2015,08,21,06,50,13.90
2015,08,21,06,51,14.00
2015,08,21,06,52,14.00
2015,08,21,06,53,14.00
2015,08,21,06,54,14.10
2015,08,21,06,55,14.10
2015,08,21,06,56,14.10
2015,08,21,06,57,14.10
2015,08,21,06,58,14.10
2015,08,21,06,59,14.10
2015,08,21,07,00,14.20
2015,08,21,07,01,14.20
2015,08,21,07,02,14.20
2015,08,21,07,03,14.20
2015,08,21,07,04,14.20
2015,08,21,07,05,14.20
2015,08,21,07,06,14.30
2015,08,21,07,07,14.30
2015,08,21,07,08,14.30
2015,08,21,07,09,14.30
2015,08,21,07,10,14.30
2015,08,21,07,11,14.30
2015,08,21,07,12,14.40
2015,08,21,07,13,14.40
2015,08,21,07,14,14.40
2015,08,21,07,15,14.40
2015,08,21,07,16,14.40
2015,08,21,07,17,14.40
2015,08,21,07,18,14.40
2015,08,21,07,19,14.40
2015,08,21,07,20,14.40
2015,08,21,07,21,14.40
2015,08,21,07,22,14.40
2015,08,21,07,23,14.40
2015,08,21,07,24,14.40
2015,08,21,07,25,14.40
2015,08,21,07,26,14.40
2015,08,21,07,27,14.50
2015,08,21,07,28,14.50
2015,08,21,07,29,14.50
2015,08,21,07,30,14.50
2015,08,21,07,31,14.50
2015,08,21,07,32,14.60
2015,08,21,07,33,14.60
2015,08,21,07,34,14.60
2015,08,21,07,35,14.60
2015,08,21,07,36,14.60
2015,08,21,07,37,14.70
2015,08,21,07,38,14.70
2015,08,21,07,39,14.70
2015,08,21,07,40,14.70
2015,08,21,07,41,14.70
2015,08,21,07,42,14.80
2015,08,21,07,43,14.80
2015,08,21,07,44,14.80
2015,08,21,07,45,14.80
2015,08,21,07,46,14.80
2015,08,21,07,47,14.80
2015,08,21,07,48,14.80
2015,08,21,07,49,14.80
2015,08,21,07,50,14.80
2015,08,21,07,51,14.90
2015,08,21,07,52,14.90
2015,08,21,07,53,14.90
2015,08,21,07,54,15.00
2015,08,21,07,55,15.00
2015,08,21,07,56,15.00
2015,08,21,07,57,15.00
2015,08,21,07,58,15.00
2015,08,21,07,59,15.00
2015,08,21,08,00,15.00
2015,08,21,08,01,15.00
2015,08,21,08,02,15.00
2015,08,21,08,03,15.00
2015,08,21,08,04,15.00
2015,08,21,08,05,15.00
2015,08,21,08,06,15.00
2015,08,21,08,07,15.00
2015,08,21,08,08,15.00
2015,08,21,08,09,15.00
2015,08,21,08,10,15.00
2015,08,21,08,11,15.00
2015,08,21,08,12,15.00
2015,08,21,08,13,15.00
2015,08,21,08,14,15.00
2015,08,21,08,15,15.00
2015,08,21,08,16,15.00
2015,08,21,08,17,15.00
2015,08,21,08,18,15.00
2015,08,21,08,19,15.00
2015,08,21,08,20,15.00
2015,08,21,08,21,15.10
2015,08,21,08,22,15.10
2015,08,21,08,23,15.10
2015,08,21,08,24,15.10
2015,08,21,08,25,15.10
2015,08,21,08,26,15.10
2015,08,21,08,27,15.10
2015,08,21,08,28,15.10
2015,08,21,08,29,15.10
2015,08,21,08,30,15.20
2015,08,21,08,31,15.20
2015,08,21,08,32,15.30
2015,08,21,08,33,15.30
2015,08,21,08,34,15.40
2015,08,21,08,35,15.40
2015,08,21,08,36,15.40
2015,08,21,08,37,15.50
2015,08,21,08,38,15.50
2015,08,21,08,39,15.50
2015,08,21,08,40,15.50
2015,08,21,08,41,15.60
2015,08,21,08,42,15.60
2015,08,21,08,43,15.60
2015,08,21,08,44,15.60
2015,08,21,08,45,15.60
2015,08,21,08,46,15.60
2015,08,21,08,47,15.60
2015,08,21,08,48,15.60
2015,08,21,08,49,15.60
2015,08,21,08,50,15.60
2015,08,21,08,51,15.60
2015,08,21,08,52,15.60
2015,08,21,08,53,15.60
2015,08,21,08,54,15.60
2015,08,21,08,55,15.60
2015,08,21,08,56,15.60
2015,08,21,08,57,15.60
2015,08,21,08,58,15.60
2015,08,21,08,59,15.60
2015,08,21,09,00,15.70
2015,08,21,09,01,15.70
2015,08,21,09,02,15.70
2015,08,21,09,03,15.70
2015,08,21,09,04,15.70
2015,08,21,09,05,15.80
2015,08,21,09,06,15.80
2015,08,21,09,07,15.80
2015,08,21,09,08,15.80
2015,08,21,09,09,15.80
2015,08,21,09,10,15.90
2015,08,21,09,11,15.90
2015,08,21,09,12,15.90
2015,08,21,09,13,15.90
2015,08,21,09,14,15.90
2015,08,21,09,15,15.90
2015,08,21,09,16,15.90
2015,08,21,09,17,15.90
2015,08,21,09,18,15.90
2015,08,21,09,19,16.00
2015,08,21,09,20,16.00
2015,08,21,09,21,16.10
2015,08,21,09,22,16.20
2015,08,21,09,23,16.20
2015,08,21,09,24,16.20
2015,08,21,09,25,16.10
2015,08,21,09,26,16.10
2015,08,21,09,27,16.10
2015,08,21,09,28,16.10
2015,08,21,09,29,16.10
2015,08,21,09,30,16.10
2015,08,21,09,31,16.10
2015,08,21,09,32,16.20
2015,08,21,09,33,16.20
2015,08,21,09,34,16.20
2015,08,21,09,35,16.30
2015,08,21,09,36,16.30
2015,08,21,09,37,16.30
2015,08,21,09,38,16.30
2015,08,21,09,39,16.30
2015,08,21,09,40,16.30
2015,08,21,09,41,16.30
2015,08,21,09,42,16.40
2015,08,21,09,43,16.40
2015,08,21,09,44,16.50
2015,08,21,09,45,16.60
2015,08,21,09,46,16.70
2015,08,21,09,47,16.80
2015,08,21,09,48,16.80
2015,08,21,09,49,16.80
2015,08,21,09,50,16.80
2015,08,21,09,51,16.80
2015,08,21,09,52,16.80
2015,08,21,09,53,16.70
2015,08,21,09,54,16.70
2015,08,21,09,55,16.70
2015,08,21,09,56,16.70
2015,08,21,09,57,16.70
2015,08,21,09,58,16.70
2015,08,21,09,59,16.80
2015,08,21,10,00,16.80
2015,08,21,10,01,16.80
2015,08,21,10,02,16.80
2015,08,21,10,03,16.80
2015,08,21,10,04,16.80
2015,08,21,10,05,16.80
2015,08,21,10,06,16.80
2015,08,21,10,07,16.80
2015,08,21,10,08,16.90
2015,08,21,10,09,16.90
2015,08,21,10,10,16.90
2015,08,21,10,11,16.90
2015,08,21,10,12,16.90
2015,08,21,10,13,16.80
2015,08,21,10,14,16.80
2015,08,21,10,15,16.80
2015,08,21,10,16,16.80
2015,08,21,10,17,16.80
2015,08,21,10,18,16.80
2015,08,21,10,19,16.80
2015,08,21,10,20,16.80
2015,08,21,10,21,16.80
2015,08,21,10,22,16.80
2015,08,21,10,23,16.80
2015,08,21,10,24,16.80
2015,08,21,10,25,16.80
2015,08,21,10,26,16.80
2015,08,21,10,27,16.80
2015,08,21,10,28,16.80
2015,08,21,10,29,16.80
2015,08,21,10,30,16.90
2015,08,21,10,31,16.90
2015,08,21,10,32,17.00
2015,08,21,10,33,17.00
2015,08,21,10,34,17.10
2015,08,21,10,35,17.10
2015,08,21,10,36,17.10
2015,08,21,10,37,17.10
2015,08,21,10,38,17.10
2015,08,21,10,39,17.10
2015,08,21,10,40,17.10
2015,08,21,10,41,17.10
2015,08,21,10,42,17.10
2015,08,21,10,43,17.20
2015,08,21,10,44,17.20
2015,08,21,10,45,17.10
2015,08,21,10,46,17.10
2015,08,21,10,47,17.20
2015,08,21,10,48,17.20
2015,08,21,10,49,17.20
2015,08,21,10,50,17.20
2015,08,21,10,51,17.30
2015,08,21,10,52,17.40
2015,08,21,10,53,17.40
2015,08,21,10,54,17.50
2015,08,21,10,55,17.60
2015,08,21,10,56,17.70
2015,08,21,10,57,17.70
2015,08,21,10,58,17.70
2015,08,21,10,59,17.70
2015,08,21,11,00,17.60
2015,08,21,11,01,17.50
2015,08,21,11,02,17.50
2015,08,21,11,03,17.60
2015,08,21,11,04,17.70
2015,08,21,11,05,17.80
2015,08,21,11,06,17.90
2015,08,21,11,07,17.90
2015,08,21,11,08,17.70
2015,08,21,11,09,17.60
2015,08,21,11,10,17.60
2015,08,21,11,11,17.70
2015,08,21,11,12,17.70
2015,08,21,11,13,17.70
2015,08,21,11,14,17.60
2015,08,21,11,15,17.60
2015,08,21,11,16,17.60
2015,08,21,11,17,17.60
2015,08,21,11,18,17.70
2015,08,21,11,19,17.70
2015,08,21,11,20,17.70
2015,08,21,11,21,17.60
2015,08,21,11,22,17.60
2015,08,21,11,23,17.60
2015,08,21,11,24,17.60
2015,08,21,11,25,17.70
2015,08,21,11,26,17.70
2015,08,21,11,27,17.70
2015,08,21,11,28,17.80
2015,08,21,11,29,17.80
2015,08,21,11,30,17.80
2015,08,21,11,31,17.80
2015,08,21,11,32,17.90
2015,08,21,11,33,17.90
2015,08,21,11,34,18.00
2015,08,21,11,35,18.20
2015,08,21,11,36,18.30
2015,08,21,11,37,18.40
2015,08,21,11,38,18.40
2015,08,21,11,39,18.50
2015,08,21,11,40,18.60
2015,08,21,11,41,18.60
2015,08,21,11,42,18.70
2015,08,21,11,43,18.60
2015,08,21,11,44,18.60
2015,08,21,11,45,18.50
2015,08,21,11,46,18.50
2015,08,21,11,47,18.40
2015,08,21,11,48,18.40
2015,08,21,11,49,18.40
2015,08,21,11,50,18.40
2015,08,21,11,51,18.40
2015,08,21,11,52,18.50
2015,08,21,11,53,18.60
2015,08,21,11,54,18.60
2015,08,21,11,55,18.60
2015,08,21,11,56,18.60
2015,08,21,11,57,18.60
2015,08,21,11,58,18.60
2015,08,21,11,59,18.60
2015,08,21,12,00,18.70
2015,08,21,12,01,18.70
2015,08,21,12,02,18.70
2015,08,21,12,03,18.80
2015,08,21,12,04,18.80
2015,08,21,12,05,18.80
2015,08,21,12,06,18.90
2015,08,21,12,07,18.90
2015,08,21,12,08,18.90
2015,08,21,12,09,18.80
2015,08,21,12,10,18.80
2015,08,21,12,11,18.80
2015,08,21,12,12,18.80
2015,08,21,12,13,18.80
2015,08,21,12,14,18.80
2015,08,21,12,15,18.90
2015,08,21,12,16,18.90
2015,08,21,12,17,19.00
2015,08,21,12,18,19.00
2015,08,21,12,19,18.90
2015,08,21,12,20,18.90
2015,08,21,12,21,18.90
2015,08,21,12,22,18.90
2015,08,21,12,23,19.00
2015,08,21,12,24,19.00
2015,08,21,12,25,19.10
2015,08,21,12,26,19.20
2015,08,21,12,27,19.20
2015,08,21,12,28,19.30
2015,08,21,12,29,19.30
2015,08,21,12,30,19.40
2015,08,21,12,31,19.30
2015,08,21,12,32,19.30
2015,08,21,12,33,19.30
2015,08,21,12,34,19.30
2015,08,21,12,35,19.30
2015,08,21,12,36,19.40
2015,08,21,12,37,19.40
2015,08,21,12,38,19.50
2015,08,21,12,39,19.60
2015,08,21,12,40,19.70
2015,08,21,12,41,19.80
2015,08,21,12,42,19.80
2015,08,21,12,43,19.80
2015,08,21,12,44,19.80
2015,08,21,12,45,19.80
2015,08,21,12,46,19.80
2015,08,21,12,47,19.80
2015,08,21,12,48,19.60
2015,08,21,12,49,19.60
2015,08,21,12,50,19.60
2015,08,21,12,51,19.60
2015,08,21,12,52,19.70
2015,08,21,12,53,19.70
2015,08,21,12,54,19.80
2015,08,21,12,55,19.80
2015,08,21,12,56,19.80
2015,08,21,12,57,19.80
2015,08,21,12,58,19.70
2015,08,21,12,59,19.70
2015,08,21,13,00,19.70
2015,08,21,13,01,19.70
2015,08,21,13,02,19.60
2015,08,21,13,03,19.60
2015,08,21,13,04,19.60
2015,08,21,13,05,19.60
2015,08,21,13,06,19.60
2015,08,21,13,07,19.60
2015,08,21,13,08,19.70
2015,08,21,13,09,19.70
2015,08,21,13,10,19.80
2015,08,21,13,11,19.80
2015,08,21,13,12,19.90
2015,08,21,13,13,19.90
2015,08,21,13,14,19.90
2015,08,21,13,15,19.90
2015,08,21,13,16,19.90
2015,08,21,13,17,19.90
2015,08,21,13,18,19.90
2015,08,21,13,19,19.80
2015,08,21,13,20,19.80
2015,08,21,13,21,19.80
2015,08,21,13,22,19.80
2015,08,21,13,23,19.80
2015,08,21,13,24,19.80
2015,08,21,13,25,19.80
2015,08,21,13,26,19.90
2015,08,21,13,27,19.90
2015,08,21,13,28,20.00
2015,08,21,13,29,20.00
2015,08,21,13,30,19.90
2015,08,21,13,31,19.90
2015,08,21,13,32,19.90
2015,08,21,13,33,19.90
2015,08,21,13,34,19.80
2015,08,21,13,35,19.90
2015,08,21,13,36,19.90
2015,08,21,13,37,20.00
2015,08,21,13,38,20.20
2015,08,21,13,39,20.40
2015,08,21,13,40,20.50
2015,08,21,13,41,20.60
2015,08,21,13,42,20.80
2015,08,21,13,43,20.80
2015,08,21,13,44,20.80
2015,08,21,13,45,20.80
2015,08,21,13,46,20.90
2015,08,21,13,47,20.90
2015,08,21,13,48,20.90
2015,08,21,13,49,21.00
2015,08,21,13,50,21.00
2015,08,21,13,51,21.00
2015,08,21,13,52,21.00
2015,08,21,13,53,21.00
2015,08,21,13,54,21.10
2015,08,21,13,55,21.10
2015,08,21,13,56,21.10
2015,08,21,13,57,21.10
2015,08,21,13,58,21.10
2015,08,21,13,59,21.10
2015,08,21,14,00,21.00
2015,08,21,14,01,20.90
2015,08,21,14,02,20.80
2015,08,21,14,03,20.90
2015,08,21,14,04,21.00
2015,08,21,14,05,21.00
2015,08,21,14,06,21.10
2015,08,21,14,07,21.10
2015,08,21,14,08,21.10
2015,08,21,14,09,21.00
2015,08,21,14,10,21.00
2015,08,21,14,11,21.10
2015,08,21,14,12,21.10
2015,08,21,14,13,21.10
2015,08,21,14,14,21.10
2015,08,21,14,15,21.20
2015,08,21,14,16,21.30
2015,08,21,14,17,21.20
2015,08,21,14,18,21.30
2015,08,21,14,19,21.30
2015,08,21,14,20,21.30
2015,08,21,14,21,21.30
2015,08,21,14,22,21.20
2015,08,21,14,23,21.20
2015,08,21,14,24,21.30
2015,08,21,14,25,21.30
2015,08,21,14,26,21.30
2015,08,21,14,27,21.40
2015,08,21,14,28,21.50
2015,08,21,14,29,21.60
2015,08,21,14,30,21.70
2015,08,21,14,31,21.80
2015,08,21,14,32,21.80
2015,08,21,14,33,21.80
2015,08,21,14,34,21.70
2015,08,21,14,35,21.60
2015,08,21,14,36,21.70
2015,08,21,14,37,21.70
2015,08,21,14,38,21.60
2015,08,21,14,39,21.60
2015,08,21,14,40,21.50
2015,08,21,14,41,21.40
2015,08,21,14,42,21.40
2015,08,21,14,43,21.40
2015,08,21,14,44,21.50
2015,08,21,14,45,21.50
2015,08,21,14,46,21.50
2015,08,21,14,47,21.60
2015,08,21,14,48,21.60
2015,08,21,14,49,21.60
2015,08,21,14,50,21.60
2015,08,21,14,51,21.60
2015,08,21,14,52,21.70
2015,08,21,14,53,21.70
2015,08,21,14,54,21.70
2015,08,21,14,55,21.70
2015,08,21,14,56,21.60
2015,08,21,14,57,21.60
2015,08,21,14,58,21.50
2015,08,21,14,59,21.60
2015,08,21,15,00,21.60
2015,08,21,15,01,21.50
2015,08,21,15,02,21.50
2015,08,21,15,03,21.40
2015,08,21,15,04,21.40
2015,08,21,15,05,21.40
2015,08,21,15,06,21.50
2015,08,21,15,07,21.60
2015,08,21,15,08,21.70
2015,08,21,15,09,21.80
2015,08,21,15,10,21.90
2015,08,21,15,11,21.90
2015,08,21,15,12,22.00
2015,08,21,15,13,22.00
2015,08,21,15,14,22.00
2015,08,21,15,15,22.10
2015,08,21,15,16,22.10
2015,08,21,15,17,22.10
2015,08,21,15,18,22.10
2015,08,21,15,19,22.10
2015,08,21,15,20,22.10
2015,08,21,15,21,22.10
2015,08,21,15,22,22.10
2015,08,21,15,23,22.20
2015,08,21,15,24,22.20
2015,08,21,15,25,22.20
2015,08,21,15,26,22.20
2015,08,21,15,27,22.30
2015,08,21,15,28,22.30
2015,08,21,15,29,22.30
2015,08,21,15,30,22.30
2015,08,21,15,31,22.30
2015,08,21,15,32,22.30
2015,08,21,15,33,22.20
2015,08,21,15,34,22.20
2015,08,21,15,35,22.20
2015,08,21,15,36,22.20
2015,08,21,15,37,22.30
2015,08,21,15,38,22.40
2015,08,21,15,39,22.30
2015,08,21,15,40,22.30
2015,08,21,15,41,22.30
2015,08,21,15,42,22.40
2015,08,21,15,43,22.40
2015,08,21,15,44,22.50
2015,08,21,15,45,22.50
2015,08,21,15,46,22.50
2015,08,21,15,47,22.50
2015,08,21,15,48,22.60
2015,08,21,15,49,22.60
2015,08,21,15,50,22.70
2015,08,21,15,51,22.60
2015,08,21,15,52,22.60
2015,08,21,15,53,22.60
2015,08,21,15,54,22.70
2015,08,21,15,55,22.80
2015,08,21,15,56,22.70
2015,08,21,15,57,22.70
2015,08,21,15,58,22.70
2015,08,21,15,59,22.60
2015,08,21,16,00,22.60
2015,08,21,16,01,22.50
2015,08,21,16,02,22.50
2015,08,21,16,03,22.50
2015,08,21,16,04,22.60
2015,08,21,16,05,22.60
2015,08,21,16,06,22.60
2015,08,21,16,07,22.60
2015,08,21,16,08,22.60
2015,08,21,16,09,22.60
2015,08,21,16,10,22.60
2015,08,21,16,11,22.60
2015,08,21,16,12,22.60
2015,08,21,16,13,22.70
2015,08,21,16,14,22.70
2015,08,21,16,15,22.60
2015,08,21,16,16,22.50
2015,08,21,16,17,22.40
2015,08,21,16,18,22.30
2015,08,21,16,19,22.30
2015,08,21,16,20,22.30
2015,08,21,16,21,22.20
2015,08,21,16,22,22.20
2015,08,21,16,23,22.10
2015,08,21,16,24,22.00
2015,08,21,16,25,21.90
2015,08,21,16,26,21.90
2015,08,21,16,27,21.90
2015,08,21,16,28,21.80
2015,08,21,16,29,21.70
2015,08,21,16,30,21.60
2015,08,21,16,31,21.50
2015,08,21,16,32,21.40
2015,08,21,16,33,21.40
2015,08,21,16,34,21.40
2015,08,21,16,35,21.40
2015,08,21,16,36,21.40
2015,08,21,16,37,21.40
2015,08,21,16,38,21.30
2015,08,21,16,39,21.30
2015,08,21,16,40,21.30
2015,08,21,16,41,21.40
2015,08,21,16,42,21.50
2015,08,21,16,43,21.60
2015,08,21,16,44,21.70
2015,08,21,16,45,21.70
2015,08,21,16,46,21.70
2015,08,21,16,47,21.90
2015,08,21,16,48,22.00
2015,08,21,16,49,22.00
2015,08,21,16,50,22.10
2015,08,21,16,51,22.20
2015,08,21,16,52,22.20
2015,08,21,16,53,22.20
2015,08,21,16,54,22.20
2015,08,21,16,55,22.10
2015,08,21,16,56,22.10
2015,08,21,16,57,22.10
2015,08,21,16,58,22.00
2015,08,21,16,59,22.10
2015,08,21,17,00,22.10
2015,08,21,17,01,22.20
2015,08,21,17,02,22.30
2015,08,21,17,03,22.30
2015,08,21,17,04,22.40
2015,08,21,17,05,22.40
2015,08,21,17,06,22.40
2015,08,21,17,07,22.40
2015,08,21,17,08,22.40
2015,08,21,17,09,22.40
2015,08,21,17,10,22.40
2015,08,21,17,11,22.50
2015,08,21,17,12,22.40
2015,08,21,17,13,22.40
2015,08,21,17,14,22.50
2015,08,21,17,15,22.50
2015,08,21,17,16,22.60
2015,08,21,17,17,22.60
2015,08,21,17,18,22.50
2015,08,21,17,19,22.40